This is the latest recevied weather packets stored in our database for station/object IN3XSV-13. If no packets are shown the sender has not sent any weather packets the latest 10 day(s).
| Time | Temp. | Humidity | Pressure | Rain* | Wind** | Luminosity | Snow |
|---|---|---|---|---|---|---|---|
| 1777900731 | 23.89° C | 39% | 9954.9 hPa | 0 mm | - | - | - |
| 1777900431 | 23.89° C | 40% | 9954.9 hPa | 0 mm | - | - | - |
| 1777900131 | 24.44° C | 39% | 9955 hPa | 0 mm | - | - | - |
| 1777899831 | 25° C | 39% | 9954.9 hPa | 0 mm | - | - | - |
| 1777899531 | 25.56° C | 38% | 9955 hPa | 0 mm | - | - | - |
| 1777899231 | 26.11° C | 39% | 9955 hPa | 0 mm | - | - | - |
| 1777898931 | 25° C | 40% | 9954.9 hPa | 0 mm | - | - | - |
| 1777898631 | 24.44° C | 40% | 9954.9 hPa | 0 mm | - | - | - |
| 1777898331 | 23.33° C | 41% | 9955.1 hPa | 0 mm | - | - | - |
| 1777898031 | 22.78° C | 40% | 9955 hPa | 0 mm | - | - | - |
| 1777897731 | 22.78° C | 40% | 9955 hPa | 0 mm | - | - | - |
| 1777897431 | 23.33° C | 41% | 9955.2 hPa | 0 mm | - | - | - |
| 1777897131 | 22.78° C | 41% | 9955.2 hPa | 0 mm | - | - | - |
| 1777896831 | 22.78° C | 40% | 9955.3 hPa | 0 mm | - | - | - |
| 1777896531 | 22.78° C | 40% | 9955.3 hPa | 0 mm | - | - | - |
| 1777896231 | 23.33° C | 40% | 9955.2 hPa | 0 mm | - | - | - |
| 1777895931 | 23.33° C | 40% | 9955.3 hPa | 0 mm | - | - | - |
| 1777895631 | 23.89° C | 39% | 9955.3 hPa | 0 mm | - | - | - |
| 1777895331 | 23.33° C | 41% | 9955.4 hPa | 0 mm | - | - | - |
| 1777895031 | 22.78° C | 40% | 9955.5 hPa | 0 mm | - | - | - |
| 1777894731 | 22.78° C | 40% | 9955.3 hPa | 0 mm | - | - | - |
| 1777894431 | 23.33° C | 39% | 9955.3 hPa | 0 mm | - | - | - |
| 1777894131 | 25° C | 39% | 9955.3 hPa | 0 mm | - | - | - |
| 1777893831 | 24.44° C | 40% | 9955.4 hPa | 0 mm | - | - | - |
| 1777893531 | 24.44° C | 39% | 9955.7 hPa | 0 mm | - | - | - |
* Rain latest hour (hover to see other rain measurements)
** Current wind speed in m/s (hover to see current wind gust speed)